Flag for Germany Weather past 2 weeks in Freiburg, Baden-Württemberg, Germany

Now
47 °F

Fog.


Feels Like: 47 °F
Forecast: 41 / 65 °F
Wind: 1 mph from Northeast

Location: Freiburg


UV Index: 3 (Moderate)

Visibility: 3 mi


Pressure: 29.77 "Hg

Humidity: 87%

Dew point: 43 °F

Location of FreiburgLocation

Historic Weather in Freiburg

°F

Freiburg temperature yesterday

Maximum temperature yesterday: 49 °F (at 8:00 PM)
Minimum temperature yesterday: 34 °F (at 5:00 AM)
Average temperature yesterday: 42 °F

Past Weeks' High & Low Weather Summary

 TemperatureHumidityPressure
High73 °F (Apr 7, 6:00 PM)97% (Apr 6, 3:00 AM)30.38 "Hg (Apr 6, 3:00 AM)
Low28 °F (Apr 16, 6:00 AM)25% (Apr 17, 6:00 PM)29.77 "Hg (Apr 20, 1:00 AM)
Average52 °F64%30.10 "Hg
* Reported Apr 5 1:00 AM — Apr 20 1:00 AM, Freiburg, Weather by CustomWeather, © 2014

Note: Actual official high and low records may vary slightly from our data, if they occured in-between our weather recording intervals... More about our weather records

Advertising

Historic Weather Conditions — Data for Previous 24 hours

 ConditionsComfort  
Time TempWeatherWind HumidityBarometerVisibility
1:00 AM
Apr 20
47 °FFog.1 mph87%29.77 "Hg3 mi
12:00 AM46 °FFog.1 mph89%29.78 "Hg4 mi
10:00 PM
Apr 19
46 °FFog.1 mph86%29.81 "Hg4 mi
9:00 PM47 °FFog.1 mph86%29.82 "Hg4 mi
8:00 PM49 °FOvercast.1 mph77%29.81 "Hg6 mi
7:00 PM48 °FOvercast.2 mph78%29.81 "Hg6 mi
6:00 PM48 °FOvercast.3 mph76%29.82 "Hg7 mi
4:00 PM47 °FOvercast.3 mph77%29.84 "Hg9 mi
3:00 PM47 °FOvercast.3 mph72%29.86 "Hg15 mi
2:00 PM46 °FOvercast.3 mph74%29.87 "Hg16 mi
1:00 PM46 °FOvercast.3 mph74%29.87 "Hg18 mi
12:00 PM44 °FOvercast.5 mph83%29.87 "Hg14 mi
10:00 AM41 °FOvercast.3 mph91%29.90 "Hg5 mi
9:00 AM40 °FOvercast.2 mph92%29.91 "Hg9 mi
8:00 AM37 °FOvercast.2 mph94%29.91 "Hg15 mi
7:00 AM35 °FOvercast.1 mph97%29.93 "Hg19 mi
6:00 AM34 °FOvercast.1 mph97%29.93 "Hg5 mi
5:00 AM34 °FFog.1 mph96%29.93 "Hg4 mi
4:00 AM34 °FPassing clouds.1 mph96%29.93 "Hg3 mi
3:00 AM34 °FPassing clouds.1 mph95%29.95 "Hg6 mi
Weather by CustomWeather, © 2014

See weather overview